Location: ????????
(41.9580°N, 44.1367°E)
Time: 20:56:35
(UTC+00:00)

Daily predictions for brighter satellites

Satellite Brightness Start Highest point End
(mag) Time Altitude Azimuth Time Altitude Azimuth Time Altitude Azimuth
ARGOS 4.3 17:07:14 10° S 17:12:25 46° W 17:17:39 10° NNW
CZ-2C R/B 2.7 17:09:07 10° NNE 17:14:33 89° WNW 17:19:50 10° SSW
MetOp-A 4.3 17:09:48 10° SSE 17:15:09 84° WSW 17:20:33 10° NNW
Cosmos 1356 Rocket 4.5 17:12:14 10° NNW 17:16:21 48° W 17:20:23 10° S
SL-16 R/B 2.8 17:11:57 10° SW 17:17:34 64° WNW 17:23:13 10° NNE
GEOS 3 Rocket 4.4 17:15:29 10° NE 17:20:17 32° ESE 17:25:02 10° S
FALCON 9 R/B 2.7 17:21:03 10° SW 17:21:54 11° SSW 17:22:41 10° S
Ariane Rocket 4.3 17:17:36 10° SSW 17:22:21 39° W 17:27:09 10° NNW
Spot 2 Rocket 4.5 17:19:32 10° SE 17:23:59 32° ENE 17:28:28 10° N
Delta 2 Rocket 3.9 17:21:36 10° WSW 17:24:37 28° S 17:27:31 10° ESE
DMSP B5D2-2 4.5 17:20:55 10° N 17:26:06 70° WNW 17:31:17 10° SSW
ATLAS 5 CENTAUR R/B 1.4 17:22:20 10° SSW 17:26:20 62° ESE 17:30:45 10° NE
Cosmos 1812 Rocket 3.6 17:22:07 10° N 17:26:24 60° E 17:30:40 10° SSE
Nadezhda 1 Rocket 4.2 17:23:13 10° N 17:29:35 61° E 17:35:51 10° SSE
Cosmos 2278 Rocket 4.4 17:27:29 10° NNE 17:29:40 12° NE 17:31:51 10° ENE
OAO 2 Rocket 4.1 17:25:35 10° SW 17:30:23 36° S 17:35:13 10° ESE
Cosmos 1602 Rocket 3.6 17:26:10 10° S 17:30:35 90° ENE 17:35:03 10° N
Meteor 2-10 Rocket 3.6 17:26:36 10° N 17:31:43 66° ENE 17:36:59 10° SSE
Cosmos 1844 Rocket 3.2 17:27:52 10° NNW 17:33:16 47° ENE 17:38:17 12° SE
Cosmos 1125 Rocket 3.8 17:30:33 10° NNW 17:35:47 69° WSW 17:41:01 10° S
SPOT 1/Viking Rocket 4.3 17:39:27 12° SE 17:43:45 37° ENE 17:48:28 10° N
SPOT 3 Rocket 4.3 17:44:59 10° S 17:50:02 52° W 17:55:09 10° NNW
Cosmos-2242 3.3 17:50:39 10° N 17:54:55 53° E 17:58:14 16° SSE
IRIS 3.8 17:54:17 10° WSW 17:57:36 70° S 17:59:22 17° E
Cosmos 1400 Rocket 2.9 17:54:09 10° N 17:58:04 56° ENE 18:00:47 18° SSE
Resurs 01 Rocket 2.2 17:54:41 10° S 17:59:01 56° W 18:03:22 10° NNW
Terra 3.4 17:57:11 13° ESE 18:00:05 22° ENE 18:03:42 10° NNE
NOSS 3-3 (A) 4.0 17:55:49 10° S 18:01:17 49° ESE 18:07:22 10° NE
NOSS 3-3 (C) 4.1 17:55:56 10° S 18:01:24 48° ESE 18:07:29 10° NE
Cosmos 2322 Rocket 4.0 17:59:20 10° WSW 18:04:23 34° WNW 18:09:29 10° N
BREEZE-M DEB (TANK) 4.4 17:56:09 10° W 18:04:24 37° NNW 18:07:38 10° NE
SAR-Lupe-2 3.7 18:08:35 10° NNE 18:12:06 53° E 18:14:19 21° S
Cosmos 1758 Rocket 4.1 18:11:49 10° SSW 18:16:15 60° W 18:20:42 10° N
USA 245 3.1 18:17:20 23° S 18:19:17 75° W 18:23:20 10° NNW
ATLAS 2AS CENTAUR R/B 4.4 18:14:42 10° NNW 18:21:02 27° NNE 18:26:57 10° E
Cosmos 1455 3.5 18:18:44 10° NNW 18:22:19 38° W 18:25:46 11° SSW
Cosmos 1328 4.3 18:19:19 10° SSW 18:23:14 58° W 18:27:10 10° N
Cosmos 1538 Rocket 4.1 18:18:20 11° S 18:23:29 61° ESE 18:28:44 10° NNE
COSMOS 2428 2.7 18:21:02 10° S 18:26:37 66° ESE 18:32:15 10° NNE
Cosmos 2181 Rocket 4.1 18:22:00 10° N 18:28:19 66° E 18:32:20 23° SSE
Cosmos 2322 4.0 18:23:49 10° SSW 18:29:31 72° WNW 18:35:16 10° NNE
Cosmos 1844 3.8 18:24:41 10° NNW 18:30:27 75° WSW 18:34:08 23° SSE
DELTA 2 R/B (1) 3.8 18:28:38 10° SW 18:33:53 44° SSE 18:39:11 10° E
OAO 3 Rocket 4.4 18:29:58 10° WSW 18:34:00 26° SSW 18:35:05 24° S
USA 215 3.2 18:29:49 10° NE 18:36:24 74° SE 18:42:55 10° SW
Cosmos 773 Rocket 4.4 18:32:13 10° SSW 18:37:29 66° WNW 18:42:46 10° NNE
Cosmos 2237 Rocket 3.0 18:36:08 26° SE 18:37:51 31° ESE 18:42:47 10° NE
BREEZE-M DEB (TANK) 3.6 18:29:27 10° WNW 18:38:04 52° NNE 18:40:15 19° E
Cosmos 2219 Rocket 2.1 18:33:11 10° SSW 18:38:46 89° WNW 18:44:25 10° NNE
Cosmos 1953 Rocket 3.9 18:35:48 13° SSW 18:39:31 62° W 18:43:49 10° N
ERS-1 Rocket 2.9 18:36:48 27° SSE 18:39:40 84° ENE 18:44:44 10° NNW
Cosmos 2084 4.0 18:36:40 10° NNW 18:41:02 52° NE 18:42:59 29° ESE
Cosmos 2360 Rocket 4.0 18:36:38 10° WSW 18:41:40 32° NW 18:46:44 10° N
Meteor 1-27 4.3 18:37:03 10° N 18:42:48 74° E 18:45:59 28° SSE
BREEZE M DEB (TANK) 4.0 18:39:24 10° SSW 18:43:45 59° SE 19:00:40 10° ENE
SPOT 5 2.9 18:43:58 29° SSE 18:46:34 84° ENE 18:51:24 10° NNW
ATLAS CENTAUR R/B 1.3 18:44:02 10° NNW 18:47:40 58° NE 18:48:36 42° ESE
Cosmos 1869 3.9 18:46:49 10° N 18:50:38 42° ENE 18:51:28 37° ESE
Atlas Centaur 2 3.5 18:45:49 10° WSW 18:50:55 27° S 18:52:05 26° S
Cosmos 1842 Rocket 3.7 18:46:41 10° N 18:50:57 55° E 18:52:14 39° SE
Cosmos 2333 Rocket 2.6 18:46:45 10° SW 18:52:23 66° WNW 18:58:06 10° NNE
BREEZE-M R/B 4.2 18:41:59 10° WNW 18:53:03 86° SSW 18:55:52 31° SE
Cosmos 967 Rocket 4.5 18:47:46 10° SSW 18:54:11 68° ESE 19:00:36 10° NE
NOSS 0 Rocket 3.9 18:54:30 23° S 18:58:18 61° ESE 19:04:23 10° NNE
BREEZE-M DEB (TANK) 4.2 19:02:52 10° WNW 19:06:00 31° SW 19:06:37 30° SSW
USA 267 4.0 19:02:00 14° E 19:07:26 49° NNE 19:13:41 10° NW
Meteor 2-2 Rocket 4.3 19:02:09 10° N 19:07:57 69° ENE 19:10:12 38° SSE
ATLAS 5 CENTAUR R/B 4.5 19:08:25 10° W 19:11:27 19° NW 19:14:45 10° N
Cosmos 1315 Rocket 3.4 19:08:50 10° NNW 19:12:51 53° W 19:14:04 38° SSW
OAO 2 Rocket 4.0 19:09:50 10° WSW 19:14:42 37° S 19:14:42 37° S
Cosmos 2278 Rocket 2.3 19:09:15 10° NNW 19:14:54 66° ENE 19:17:00 39° SE
Cosmos 1892 2.6 19:16:30 65° ESE 19:16:37 65° E 19:20:23 10° NNE
Cosmos 1844 Rocket 4.3 19:12:25 10° NW 19:16:48 24° WSW 19:19:57 15° SW
Cosmos 1680 Rocket 3.5 19:19:13 43° S 19:20:51 66° ESE 19:26:08 10° NNE
SL-16 R/B 3.3 19:22:54 26° ESE 19:22:54 26° ESE 19:27:30 10° NE
Cosmos 2184 Rocket 4.1 19:24:07 28° SSW 19:27:35 75° W 19:33:54 10° N
Cosmos 1408 3.1 19:29:20 47° ENE 19:29:20 47° ENE 19:32:17 10° NNE
MTI 4.3 19:26:53 10° N 19:29:41 54° NW 19:29:41 54° NW
In-Cosmos 22 Rocket 4.1 19:32:33 38° SSW 19:34:38 77° W 19:39:58 10° N
Elektron 1 4.3 19:35:49 59° W 19:36:16 68° NW 19:40:48 10° NE
Cosmos 2221 3.0 19:33:16 10° NNW 19:37:32 52° W 19:38:23 44° SW
Terra 2.7 19:36:04 32° SW 19:37:33 41° W 19:42:03 10° NNW
Cosmos 923 Rocket 4.3 19:36:07 29° SW 19:38:46 67° WNW 19:44:02 10° NNE
NOSS 3-4 (A) 4.0 19:38:01 10° NNW 19:45:04 71° NE 19:48:39 34° SE
NOSS 3-4 (C) 4.0 19:38:08 10° NNW 19:45:10 70° NE 19:48:47 34° SE
BREEZE-M DEB (TANK) 4.0 19:44:25 10° W 19:46:27 25° WNW 19:46:27 25° WNW
TSX-5 3.9 19:44:07 10° NNW 19:47:45 68° WSW 19:47:45 68° WSW
Cosmos 2058 3.6 19:51:27 41° WSW 19:52:13 47° WNW 19:56:14 10° N
Okean 3 Rocket 4.1 19:52:51 45° E 19:52:51 45° E 19:56:53 10° NNE
EO 1 Delta rocket 4.3 19:51:16 10° NNE 19:56:33 79° E 19:58:19 49° S
Cosmos 1624 Rocket 4.0 19:54:48 10° NNW 20:00:02 69° ENE 20:00:53 58° ESE
Cosmos 2344 3.4 19:55:08 24° SSW 20:00:07 87° ESE 20:08:02 10° NE
TIMED 4.4 20:00:05 87° SSW 20:00:10 90° WNW 20:04:34 10° NNE
Cosmos 1980 4.4 20:00:03 21° SW 20:03:36 50° WNW 20:09:06 10° NNE
Cosmos 1825 2.5 20:05:10 65° NNW 20:05:10 65° NNW 20:08:29 10° N
Cosmos 1340 4.4 20:06:04 24° ENE 20:06:04 24° ENE 20:08:13 10° NNE
Cosmos 2369 Rocket 4.3 20:02:24 10° N 20:06:17 19° NE 20:09:48 11° E
Cosmos 2154 Rocket 4.4 20:05:01 33° SW 20:07:41 57° WNW 20:13:48 10° N
Nadezhda 3 Rocket 4.2 20:02:17 10° NNW 20:08:34 63° W 20:10:35 42° SSW
Cosmos 2341 Rocket 3.9 20:10:22 52° S 20:12:03 87° E 20:18:17 10° N
COSMOS 2455 4.2 20:06:54 10° NNW 20:12:15 32° NE 20:15:35 19° E
ATLAS 2AS CENTAUR R/B 2.7 20:05:29 10° NW 20:13:01 88° WSW 20:15:15 48° SSE
Aureole 2 Rocket 4.3 20:15:30 10° N 20:16:51 24° N 20:16:51 24° N
USA 215 4.5 20:13:04 10° NE 20:19:06 41° NNW 20:25:07 10° W
Cosmos 2151 3.1 20:19:09 66° W 20:19:09 66° W 20:23:25 10° N
Thor Agena Rocket 3.8 20:14:38 10° N 20:19:39 59° WNW 20:20:54 45° WSW
DELTA 2 R/B (1) 3.4 20:14:29 10° W 20:20:02 70° S 20:20:29 67° SE
Helios 1A 4.3 20:20:54 28° ENE 20:21:01 28° ENE 20:24:34 10° N
Cosmos 2237 Rocket 3.3 20:17:54 18° WSW 20:21:45 39° WNW 20:27:06 10° N
Cosmos 1933 4.0 20:20:29 10° N 20:23:55 49° NE 20:23:55 49° NE
Meteor 2-12 Rocket 4.4 20:25:53 57° SSE 20:27:03 70° E 20:33:10 10° NNE
SL-8 Rocket 3.9 20:26:25 57° S 20:27:48 86° E 20:33:59 10° N
Spot 4 4.1 20:27:43 53° WSW 20:27:57 54° W 20:32:38 10° NNW
Cosmos 1371 Rocket 4.1 20:22:52 10° NNW 20:28:03 59° WSW 20:28:31 56° SW
CZ-4C R/B 4.3 20:29:54 10° NNW 20:36:10 32° NE 20:43:15 10° ESE
Cosmos 1408 Rocket 3.7 20:37:58 65° NE 20:37:58 65° NE 20:41:56 10° NNE
Cosmos 1151 Rocket 3.1 20:34:56 10° N 20:38:54 74° N 20:38:54 74° N
ALOS 2 2.6 20:41:33 73° WNW 20:41:33 73° WNW 20:45:41 10° NNW
Cosmos 1782 4.1 20:38:45 10° N 20:41:53 33° ENE 20:41:53 33° ENE
Cosmos 1420 Rocket 3.8 20:37:54 10° NNW 20:43:13 86° ENE 20:43:41 75° SE
Cosmos 1727 Rocket 4.2 20:37:07 10° N 20:43:18 60° E 20:44:44 48° SE
Cosmos 332 Rocket 4.1 20:39:04 10° N 20:43:47 54° ENE 20:44:07 53° E
Cosmos 1346 Rocket 3.7 20:44:58 41° NE 20:44:58 41° NE 20:47:51 10° NNE
BREEZE-M DEB (TANK) 3.5 20:43:57 30° W 20:45:38 61° NNW 20:55:15 10° ENE
Cosmos 1500 Rocket 4.4 20:47:17 40° ENE 20:47:17 40° ENE 20:50:56 10° NNE
Helios 1B rocket 4.4 20:45:09 10° NE 20:47:28 20° ENE 20:47:28 20° ENE
USA 267 3.3 20:49:19 52° SSW 20:50:20 57° SW 20:56:48 10° NW
Cosmos 2056 Rocket 4.2 20:46:45 10° NNW 20:51:50 42° WSW 20:52:07 42° WSW
GP-B 3.6 20:51:25 10° N 20:55:38 52° WNW 20:55:38 52° WNW
Cosmos 1633 3.8 20:58:47 40° NNE 20:58:47 40° NNE 21:01:15 10° NNE
Cosmos 2278 Rocket 4.0 20:54:46 10° WNW 20:58:22 17° W 20:58:50 17° WSW
Cosmos 1943 4.0 20:59:28 36° ESE 20:59:31 36° ESE 21:04:38 10° NE
Gbstr 26 Del rocket 3.5 21:01:50 51° NNE 21:01:50 51° NNE 21:05:17 10° NE
Cosmos 2297 3.7 20:55:53 10° NNW 21:01:32 62° WSW 21:01:57 60° SW
Cosmos 1048 Rocket 3.9 21:02:36 70° ESE 21:02:47 71° ESE 21:08:02 10° NNE
Cosmos 1943 Rocket 2.4 20:57:12 10° NNW 21:02:51 66° ENE 21:04:00 53° ESE
Cosmos 1606 4.2 20:59:40 10° NNW 21:02:25 31° WNW 21:02:25 31° WNW
Cosmos 44 4.4 21:02:28 28° W 21:03:37 33° NW 21:07:39 10° NNE
RESURS DK-1 4.2 21:00:56 10° N 21:04:22 25° NE 21:05:15 23° ENE
SL-16 R/B 3.0 21:04:44 33° WSW 21:06:42 46° WNW 21:12:10 10° NNE
Cosmos 371 Rocket 3.6 21:08:18 10° NNW 21:12:42 54° W 21:12:42 54° W
Landsat 4 4.5 21:10:43 10° NNE 21:13:37 51° NNE 21:13:37 51° NNE
Cosmos 1862 4.5 21:17:49 36° ENE 21:17:49 36° ENE 21:20:49 10° NNE
Cosmos 1452 Rocket 3.4 21:13:40 10° NNW 21:18:54 69° WSW 21:19:02 69° WSW
Lacrosse 5 rocket 3.1 21:18:44 10° NNW 21:22:10 28° NNE 21:23:42 21° ENE
Cosmos 1515 Rocket 4.1 21:19:17 10° NNW 21:23:00 50° WNW 21:23:00 50° WNW
Cosmos 405 4.4 21:20:06 10° NNW 21:22:23 37° NNW 21:22:23 37° NNW
SeaSat 1 4.0 21:24:46 10° NE 21:28:22 22° ESE 21:28:22 22° ESE
ISS -1.2 21:31:57 16° ENE 21:31:57 16° ENE 21:32:47 10° ENE
Meteor 2-3 Rocket 4.5 21:30:38 37° WSW 21:31:51 42° WNW 21:37:14 10° N
Resurs 1-4 Rocket 3.8 21:37:28 10° NE 21:41:31 22° E 21:42:43 20° ESE
Cosmos 1603 3.6 21:40:44 65° SW 21:41:37 84° WNW 21:47:22 10° NNE
Cosmos 2228 Rocket 3.4 21:39:42 10° NNW 21:43:57 60° WNW 21:43:57 60° WNW
Meteor 2-6 Rocket 3.9 21:40:19 10° N 21:45:48 84° W 21:46:26 70° S
Meteor 1-10 Rocket 4.1 21:41:20 10° N 21:46:56 82° E 21:47:53 62° SSE
Cosmos 1821 Rocket 4.0 21:46:19 55° SW 21:47:36 70° W 21:53:42 10° N
Cosmos 1633 Rocket 3.9 21:50:30 39° E 21:50:34 39° E 21:54:40 10° NNE
Cosmos 2369 Rocket 2.0 21:45:19 10° NNW 21:50:55 74° WSW 21:51:33 66° SSW
Sich 1 3.0 21:52:55 75° ENE 21:52:55 75° ENE 21:57:02 10° N
CZ-4 R/B 3.9 21:48:17 10° N 21:52:55 60° WNW 21:53:14 59° W
Cosmos 44 Rocket 3.1 21:53:25 81° W 21:53:32 82° WNW 21:58:18 10° NNE
Cosmos 2123 Rocket 4.0 21:48:07 10° N 21:54:19 72° E 21:56:08 47° SSE
Lacrosse 5 3.4 21:57:10 22° ESE 21:57:10 22° ESE 22:00:30 10° ENE
Cosmos 304 Rocket 4.4 21:52:28 10° NNW 21:56:33 42° W 21:56:33 42° W
Cosmos 1535 Rocket 4.5 21:56:15 53° S 21:57:54 82° E 22:04:14 10° N
COSMOS 2455 3.1 21:52:36 10° NW 21:58:23 48° WSW 21:58:41 48° WSW
SL-4 R/B 3.8 22:02:16 18° NE 22:02:16 18° NE 22:03:10 10° NE
Cosmos 1656 Rocket 3.8 21:56:05 10° NNW 22:01:29 69° ENE 22:03:11 44° SE
ATLAS 2AS CENTAUR R/B 4.4 21:58:36 10° WNW 22:02:39 16° WSW 22:02:39 16° WSW
USA 32 4.0 22:11:10 59° SW 22:11:54 67° W 22:17:09 10° N
SL-19 R/B 4.5 22:07:39 10° NNE 22:14:00 85° ESE 22:15:53 49° S
CZ-2D R/B 2.9 22:09:33 10° NNE 22:14:35 41° E 22:16:01 34° SE
Meteor 1-27 Rocket 3.6 22:11:04 10° N 22:16:43 89° E 22:18:10 52° S
Cosmos 1812 3.4 22:13:18 10° NNW 22:16:21 46° NW 22:16:21 46° NW
Cosmos 1605 Rocket 4.0 22:15:10 46° S 22:17:10 78° E 22:23:30 10° N
Cosmos 2263 4.3 22:13:54 10° NNW 22:19:33 60° WSW 22:20:25 54° SSW
Cosmos 1607 3.8 22:18:55 51° SSW 22:20:34 80° ESE 22:26:53 10° NE
SL-24 DEB 4.5 22:16:30 10° NNE 22:21:10 62° E 22:21:59 53° SE
SL-16 R/B 3.0 22:17:47 25° SE 22:21:25 58° ENE 22:27:32 10° N
Helios 1B rocket 3.6 22:20:00 10° N 22:23:38 31° WNW 22:23:47 30° WNW
Cosmos 1666 Rocket 3.5 22:24:14 70° WSW 22:24:25 71° W 22:28:49 10° N
CZ-4C R/B 2.9 22:18:00 10° NW 22:25:25 76° WSW 22:30:40 25° SSE
Meteor 2-20 Rocket 4.4 22:20:20 10° N 22:26:30 85° W 22:28:32 45° S
CZ-4C R/B 3.9 22:29:56 45° ESE 22:30:43 53° ENE 22:34:32 10° N
Cosmos 1934 Rocket 4.4 22:33:30 39° WSW 22:35:17 50° WNW 22:41:20 10° N
NPP 4.0 22:30:41 10° NNE 22:36:00 56° E 22:37:47 38° SSE
Cosmos 292 Rocket 3.7 22:31:20 10° NNW 22:36:09 83° ENE 22:37:24 50° SSE
Cosmos 1441 Rocket 3.6 22:38:42 52° WNW 22:38:42 52° WNW 22:42:33 10° N
RESURS DK-1 3.9 22:38:46 10° NW 22:41:06 25° WNW 22:41:06 25° WNW
Cosmos 1943 4.3 22:41:16 25° W 22:43:32 34° WNW 22:48:41 10° N
Cosmos 2251 Rocket 3.7 22:44:17 42° SSE 22:45:49 60° ESE 22:50:59 10° NNE
Cosmos 1943 Rocket 3.9 22:42:24 10° WNW 22:45:29 17° W 22:45:29 17° W
Iridium 4 Rocket 3.8 22:45:51 44° SSW 22:47:39 67° W 22:53:21 10° N
Meteor 1-20 Rocket 4.2 22:46:23 42° S 22:48:19 76° E 22:53:55 10° NNE
Meteor 1-4 Rocket 2.8 22:47:34 10° N 22:51:19 67° E 22:51:48 58° SE
Cosmos 2173 Rocket 4.5 22:50:40 26° SSE 22:54:14 57° E 23:00:27 10° NNE
CZ-4B R/B 3.8 22:49:18 10° NNE 22:54:22 58° E 22:56:16 36° SSE
Abrixas rocket 2.9 22:56:58 46° NE 22:56:58 46° NE 22:59:12 10° ENE
Lacrosse 5 rocket 2.9 22:57:48 10° WNW 22:59:14 20° WNW 22:59:14 20° WNW
Cosmos 1992 Rocket 4.1 22:58:31 10° NNW 23:03:47 75° ENE 23:07:26 20° SSE
MOZ.5/SAFIR/RUBIN 5/SL-8 4.1 23:03:38 43° SW 23:04:21 46° W 23:08:57 10° NNW
Cosmos 389 Rocket 4.3 23:02:42 10° NW 23:04:34 20° WNW 23:04:34 20° WNW
Cosmos 1238 Rocket 4.0 23:03:27 36° SW 23:05:38 55° W 23:10:56 10° N
GRACE-FO 1 4.4 23:02:31 10° N 23:06:09 72° W 23:06:25 68° SW
SeaSat 1 2.9 23:01:32 10° NNE 23:06:18 50° WNW 23:08:09 33° WSW
UNK 3.7 23:05:19 47° SSW 23:06:24 62° WSW 23:10:59 10° NNW
ISS -1.7 23:04:52 18° WNW 23:06:29 25° NNW 23:09:21 10° NE
GRACE-FO 2 4.4 23:02:53 10° N 23:06:32 71° W 23:06:48 67° WSW
Cosmos 724 4.3 23:05:38 36° S 23:07:59 70° ESE 23:13:47 10° NE
Meteor 1-14 Rocket 4.3 23:08:40 30° S 23:11:27 70° E 23:17:01 10° NNE
Cosmos 405 Rocket 3.2 23:11:48 38° SSE 23:13:00 56° E 23:16:47 10° NNE
Cosmos 2242 Rocket 3.5 23:09:11 10° N 23:13:47 84° W 23:15:34 37° S
Cosmos 1470 Rocket 4.2 23:16:13 36° WSW 23:17:14 42° WNW 23:21:30 10° N
Resurs 1-4 Rocket 2.6 23:16:27 10° N 23:21:35 49° WNW 23:23:48 30° SW
Okean 1 3.2 23:21:49 10° NNW 23:25:47 71° W 23:27:01 41° SSW
Cosmos 2100 Rocket 4.0 23:25:47 28° SSW 23:29:21 74° W 23:35:38 10° N
IRS-P3 4.4 23:24:22 10° NNE 23:29:41 65° ESE 23:33:06 22° S
ADEOS II 2.1 23:25:56 10° NNE 23:31:13 81° ESE 23:34:19 26° S
SL-4 R/B 3.9 23:32:20 10° WNW 23:32:52 10° NW 23:33:24 10° NW
SL-08 R/B 4.0 23:28:33 10° SSE 23:33:06 54° ENE 23:37:45 10° N
Cosmos 1802 Rocket 4.0 23:34:11 23° S 23:38:19 83° W 23:44:46 10° N
IRS-1D 3.4 23:33:41 10° N 23:38:38 70° WNW 23:41:15 28° SSW
Lacrosse 5 2.1 23:36:20 26° WSW 23:39:09 64° NW 23:44:13 10° NE
Meteor 1-28 Rocket 4.3 23:36:15 10° SE 23:39:44 42° ENE 23:43:15 10° N
COBE Rocket 4.0 23:36:16 14° SSE 23:40:42 86° ENE 23:45:45 10° N
Cosmos 1500 3.1 23:45:02 28° S 23:46:56 88° ESE 23:50:47 10° N
Okean 1-7 3.3 23:46:14 10° NNW 23:50:32 52° W 23:52:53 25° SSW
Cosmos 1656 4.3 23:47:30 10° NNW 23:52:51 55° ENE 23:58:10 10° SE
CZ-2D R/B 3.4 23:50:03 10° N 23:54:24 27° WNW 23:57:20 17° WSW
